[[{"header":{"parameterUnit":"m.s-1","parameterCategory":1,"la1":30.2992,"la2":30.254,"lo1":-89.0895,"lo2":-89.0443,"dy":0.0025,"dx":0.0025,"nx":19,"ny":19,"refTime":"2026-04-19T09:00:00:Z","depth":0,"parameterNumber":2,"parameterNumberName":"U-component_of_WINDS"},"data":[0,0,0,-3.8495,-3.8496,-3.8495,-3.8495,-3.8527,-3.8528,0,0,0,0,0,0,0,0,0,0,0,-3.8515,-3.8516,-3.8495,-3.8496,-3.8495,-3.8495,-3.8527,-3.8528,0,0,0,0,0,0,0,0,0,0,0,-3.8515,-3.8516,-3.8517,-3.8496,-3.8495,-3.8495,-3.8527,-3.8516,0,0,0,0,0,0,0,0,0,0,-3.8511,-3.8548,-3.8515,-3.8517,-3.8496,-3.8495,-3.8495,-3.8515,-3.8517,-3.8542,0,-3.8568,0,-3.8549,-3.8532,-3.8532,0,0,0,-3.8482,-3.8547,-3.8529,-3.8517,-3.8496,-3.8495,-3.8491,-3.8516,-3.8518,-3.8545,-3.8568,-3.8569,-3.8549,-3.8533,-3.8533,-3.8723,-3.8725,0,0,-3.8482,-3.8525,-3.8527,-3.8531,-3.8532,-3.8492,-3.8492,-3.8516,-3.8546,-3.8568,-3.8569,-3.855,-3.8533,-3.8533,-3.8722,-3.8724,0,0,0,-3.8492,-3.8526,-3.8507,-3.8531,-3.8528,-3.8492,-3.8492,-3.8544,-3.8535,-3.8569,-3.855,-3.8533,-3.8534,-3.872,-3.8722,-3.8843,0,0,0,-3.8491,-3.8531,-3.8508,-3.8534,-3.8528,-3.8536,-3.852,-3.8533,-3.8534,-3.855,-3.8533,-3.8535,-3.8718,-3.8721,-3.8836,-3.8895,0,0,0,-3.8509,-3.8533,-3.854,-3.8537,-3.8538,-3.8534,-3.8525,-3.8532,-3.8524,-3.8532,-3.8535,-3.8717,-3.8721,-3.883,-3.8884,-3.896,0,0,0,-3.854,-3.8646,-3.8542,-3.8653,-3.8538,-3.8608,-3.8525,-3.8574,-3.8596,-3.8534,-3.8718,-3.8722,-3.8828,-3.8877,-3.8954,-3.9035,-3.9072,0,0,-3.8698,-3.8667,-3.8728,-3.8635,-3.8736,-3.8605,-3.8722,-3.8701,-3.8662,-3.8705,-3.8709,-3.8839,-3.8883,-3.8959,-3.9256,-3.9286,0,0,0,-3.8793,-3.8839,-3.8856,-3.8878,-3.8864,-3.8858,-3.8813,-3.8805,-3.884,-3.8692,-3.8883,-3.8908,-3.8951,-3.8988,-3.9013,-3.9049,-3.874,-3.8739,-3.8739,-3.9082,-3.9026,-3.9126,-3.907,-3.9093,-3.9047,-3.9061,-3.9043,-3.8979,-3.9025,-3.9039,-3.9226,-3.9271,-3.929,-3.9328,-3.9074,-3.9074,-3.9075,-3.9075,-3.9312,-3.937,-3.9282,-3.9348,-3.9289,-3.9344,-3.9303,-3.9257,-3.9301,-3.9211,-3.9245,-3.9156,-3.9324,-3.9355,-3.9084,-3.9082,-3.9081,-3.908,-3.908,-3.9499,-3.9517,-3.9504,-3.9532,-3.956,-3.9499,-3.9546,-3.9489,-3.9436,-3.947,-3.9482,-3.9479,-3.9474,-3.9479,-3.9479,-3.948,-3.9481,-3.9481,-3.9481,-3.9699,-3.9681,-3.9727,-3.9721,-3.9729,-3.9733,-3.9687,-3.9693,-3.9687,-3.9642,-3.9642,-3.9577,-3.9349,-3.9296,-3.9491,-3.949,-3.9488,-3.9487,-3.9487,-3.9961,-3.9892,-3.9964,-3.9972,-3.9961,-3.9995,-3.992,-3.994,-3.9936,-3.9962,-3.9888,-3.9728,-3.9692,-3.9672,-3.9628,-3.9897,-3.9897,-3.9897,-3.9897,-4.0122,-4.0097,-4.0158,-4.0176,-4.0185,-4.0126,-4.0212,-4.0177,-4.0132,-4.0127,-4.0079,-4.0013,-3.9995,-3.997,-3.9943,-3.9902,-4.0235,-4.0235,-4.0236,-4.0282,-4.0255,-4.0339,-4.0292,-4.0279,-4.0271,-4.0351,-4.0376,-4.0309,-4.0248,-4.0123,-4.0109,-4.0003,-3.9971,-3.9912,-3.9871,-3.9793,0,0]},{"header":{"parameterUnit":"m.s-1","parameterCategory":1,"la1":30.2992,"la2":30.254,"lo1":-89.0895,"lo2":-89.0443,"dy":0.0025,"dx":0.0025,"nx":19,"ny":19,"refTime":"2026-04-19T09:00:00:Z","depth":0,"parameterNumber":3,"parameterNumberName":"V-component_of_WINDS"},"data":[0,0,0,-0.1196,-0.1197,-0.1292,-0.1293,-0.141,-0.1411,0,0,0,0,0,0,0,0,0,0,0,-0.1164,-0.1164,-0.1195,-0.1198,-0.1292,-0.1293,-0.141,-0.1411,0,0,0,0,0,0,0,0,0,0,0,-0.1164,-0.1164,-0.1165,-0.1198,-0.1292,-0.1293,-0.141,-0.134,0,0,0,0,0,0,0,0,0,0,-0.1249,-0.1216,-0.1164,-0.1165,-0.1199,-0.1292,-0.1293,-0.1337,-0.1345,-0.1365,0,-0.1382,0,-0.1398,-0.1419,-0.1419,0,0,0,-0.1201,-0.1209,-0.1238,-0.1165,-0.1199,-0.1292,-0.1251,-0.1341,-0.135,-0.1376,-0.1383,-0.1388,-0.14,-0.142,-0.142,-0.1525,-0.1525,0,0,-0.1196,-0.118,-0.1232,-0.1243,-0.1226,-0.1248,-0.1253,-0.1347,-0.1355,-0.1384,-0.1391,-0.1402,-0.142,-0.1421,-0.1525,-0.1525,0,0,0,-0.1179,-0.1176,-0.1202,-0.1238,-0.1255,-0.125,-0.1257,-0.1351,-0.136,-0.1392,-0.1403,-0.1421,-0.1422,-0.1524,-0.1525,-0.1526,0,0,0,-0.1176,-0.1166,-0.12,-0.1191,-0.1253,-0.1304,-0.1259,-0.1354,-0.1365,-0.1403,-0.1421,-0.1423,-0.1524,-0.1525,-0.1525,-0.153,0,0,0,-0.1159,-0.1164,-0.1176,-0.119,-0.1229,-0.1303,-0.1318,-0.1357,-0.1372,-0.1419,-0.1424,-0.1524,-0.1525,-0.1524,-0.1529,-0.1553,0,0,0,-0.1137,-0.1176,-0.1176,-0.1223,-0.1228,-0.1301,-0.1318,-0.1373,-0.1414,-0.1422,-0.1524,-0.1525,-0.1524,-0.1528,-0.1553,-0.1573,-0.1579,0,0,-0.1178,-0.118,-0.121,-0.1212,-0.128,-0.1288,-0.1357,-0.1411,-0.1431,-0.1493,-0.1496,-0.1525,-0.1529,-0.1553,-0.1615,-0.162,0,0,0,-0.1217,-0.1238,-0.126,-0.1297,-0.1337,-0.1372,-0.1417,-0.1436,-0.1489,-0.1459,-0.154,-0.1543,-0.1558,-0.1569,-0.1573,-0.1588,-0.1528,-0.1528,-0.1528,-0.1253,-0.1274,-0.1325,-0.1358,-0.1393,-0.1437,-0.1469,-0.1503,-0.1516,-0.1534,-0.1554,-0.1589,-0.16,-0.1603,-0.1618,-0.1564,-0.1564,-0.1564,-0.1564,-0.1316,-0.135,-0.1363,-0.1417,-0.144,-0.1486,-0.1529,-0.1536,-0.1584,-0.1576,-0.1591,-0.1582,-0.1608,-0.1622,-0.1565,-0.1565,-0.1564,-0.1564,-0.1564,-0.1344,-0.1364,-0.1385,-0.144,-0.1479,-0.1511,-0.1555,-0.1574,-0.1593,-0.1607,-0.1631,-0.1631,-0.1635,-0.1616,-0.1616,-0.1616,-0.1617,-0.1617,-0.1617,-0.1365,-0.1389,-0.1423,-0.1467,-0.1493,-0.1529,-0.1572,-0.1599,-0.1633,-0.1644,-0.1644,-0.1656,-0.1605,-0.1593,-0.1619,-0.1618,-0.1618,-0.1618,-0.1618,-0.1426,-0.1414,-0.1467,-0.1492,-0.1546,-0.1584,-0.1606,-0.1658,-0.1683,-0.1704,-0.1712,-0.1669,-0.1675,-0.1672,-0.1663,-0.1705,-0.1705,-0.1705,-0.1705,-0.1451,-0.1454,-0.1512,-0.1551,-0.1592,-0.1617,-0.1677,-0.171,-0.1743,-0.176,-0.1756,-0.1744,-0.1739,-0.1748,-0.1743,-0.1735,-0.1795,-0.1795,-0.1795,-0.149,-0.1498,-0.1545,-0.1575,-0.1617,-0.1653,-0.1711,-0.1757,-0.1792,-0.1799,-0.1774,-0.177,-0.1751,-0.1743,-0.1753,-0.1745,-0.173,0,0]}]]